DRAGRACER 1 (ALCHEMY) (46954 NORAD) Tracking and Keplerian Element Data
This shows tracking and keplerian element data for the satellite.
Feedback or suggestion? Click here.
Element | Value |
Catalog | 46954 |
Name | DRAGRACER 1 (ALCHEMY) |
Epoch Orbit | 936 |
Epoch Day | 20.65461259 |
Epoch Year | 2021 |
RAAN | 160.1751 |
Inclination | 97.3586 |
Eccentricity | 0.0010059 |
Argument of Perigee | 136.6338 |
Mean Anonmoly | 223.5733 |
Mean Motion | 15.272611 |
Decay Rate | 0.00050853 |
L1 | 1 46954U 20085AB 21020.65461259 .00050853 00000-0 18931-2 0 9991 |
L2 | 2 46954 97.3586 160.1751 0010059 136.6338 223.5733 15.27261100 9362 |
Live tracking and technical data element details for DRAGRACER 1 (ALCHEMY) (NORAD 46954). DRAGRACER 1 (ALCHEMY) can be tracked NOW for your location showing map with azimuth and elevation plus other details from your city location.
Track the satellite on the map from your city or location and see movement details for azimuth, elevation, latitude, longitude, range, height, and movement on the map or in text.
IsCatalogInMostPopularTable: catalog: 46954, numindb: 19
Update: records affected: 1
GetName: 46954 DRAGRACER 1 (ALCHEMY)
Hit Count: updated at: Fri, 22 Jan 2021 18:07:33 GMT